• In Austria
  • List of Countries
  • For 7 days
  • Water Temperature
  • Satellite Maps
  • Weather Map
  • News
  • Weather Widgets
  • user-avatar
    Login

    Hourly Weather Innsbruck

    Today, 20 May, Sunday

    Time Temperature Precipitation Wind Pressure Humidity
    00:00 +2°C° 0.4 mm 0 mps 596 mmHg 96%
    01:00 +3°C° 0 mm 1 mps 596 mmHg 96%
    02:00 +2°C° 0.1 mm 1 mps 596 mmHg 96%
    03:00 +2°C° 0.1 mm 1 mps 596 mmHg 95%
    04:00 +2°C° 0.1 mm 1 mps 596 mmHg 95%
    05:00 +3°C° 0.2 mm 1 mps 596 mmHg 94%
    06:00 +4°C° 0.2 mm 1 mps 596 mmHg 93%
    07:00 +5°C° 0 mm 1 mps 597 mmHg 92%
    08:00 +6°C° 0.4 mm 1 mps 597 mmHg 89%
    09:00 +6°C° 0.4 mm 1 mps 597 mmHg 86%
    10:00 +7°C° 0.4 mm 1 mps 598 mmHg 82%
    11:00 +8°C° 0.6 mm 1 mps 598 mmHg 81%
    12:00 +8°C° 0.6 mm 1 mps 598 mmHg 80%
    13:00 +9°C° 0.6 mm 1 mps 598 mmHg 78%
    14:00 +8°C° 0.9 mm 2 mps 598 mmHg 79%
    15:00 +8°C° 0.9 mm 2 mps 597 mmHg 80%
    16:00 +8°C° 0.9 mm 2 mps 597 mmHg 82%
    17:00 +8°C° 0.8 mm 1 mps 597 mmHg 84%
    18:00 +7°C° 0.8 mm 1 mps 596 mmHg 87%
    19:00 +7°C° 0.8 mm 1 mps 596 mmHg 90%
    20:00 +6°C° 0.2 mm 1 mps 596 mmHg 92%
    21:00 +4°C° 0.2 mm 2 mps 596 mmHg 93%
    22:00 +3°C° 0.2 mm 2 mps 595 mmHg 94%
    23:00 +2°C° 0 mm 2 mps 595 mmHg 94%

    Tomorrow, 21 May, Monday

    Time Temperature Precipitation Wind Pressure Humidity
    00:00 +2°C° 0 mm 2 mps 595 mmHg 94%
    01:00 +1°C° 0 mm 2 mps 595 mmHg 94%
    02:00 +1°C° 0 mm 2 mps 595 mmHg 94%
    03:00 +1°C° 0 mm 2 mps 594 mmHg 94%
    04:00 +1°C° 0 mm 2 mps 594 mmHg 94%
    05:00 +2°C° 0 mm 2 mps 594 mmHg 91%
    06:00 +3°C° 0 mm 2 mps 595 mmHg 88%
    07:00 +4°C° 0 mm 2 mps 595 mmHg 85%
    08:00 +7°C° 0 mm 2 mps 596 mmHg 76%
    09:00 +10°C° 0 mm 1 mps 597 mmHg 67%
    10:00 +12°C° 0 mm 1 mps 598 mmHg 58%
    11:00 +12°C° 0.1 mm 1 mps 598 mmHg 58%
    12:00 +12°C° 0.1 mm 2 mps 597 mmHg 57%
    13:00 +13°C° 0.1 mm 2 mps 597 mmHg 57%
    14:00 +12°C° 0.7 mm 2 mps 597 mmHg 61%
    15:00 +12°C° 0.7 mm 2 mps 597 mmHg 65%
    16:00 +12°C° 0.7 mm 1 mps 596 mmHg 69%
    17:00 +11°C° 0.7 mm 1 mps 596 mmHg 74%
    18:00 +9°C° 0.7 mm 1 mps 595 mmHg 80%
    19:00 +8°C° 0.7 mm 1 mps 595 mmHg 85%
    20:00 +7°C° 0.4 mm 1 mps 594 mmHg 87%
    21:00 +5°C° 0.4 mm 2 mps 594 mmHg 90%
    22:00 +4°C° 0.4 mm 2 mps 594 mmHg 92%
    23:00 +3°C° 0.2 mm 2 mps 594 mmHg 93%

    Day after tomorrow, 22 May, Tuesday

    Time Temperature Precipitation Wind Pressure Humidity
    00:00 +3°C° 0.2 mm 2 mps 593 mmHg 93%
    01:00 +3°C° 0.2 mm 2 mps 593 mmHg 94%
    02:00 +2°C° 0 mm 2 mps 593 mmHg 93%
    03:00 +2°C° 0 mm 2 mps 593 mmHg 93%
    04:00 +2°C° 0 mm 2 mps 593 mmHg 93%
    05:00 +3°C° 0 mm 2 mps 593 mmHg 89%
    06:00 +6°C° 0 mm 1 mps 594 mmHg 86%
    07:00 +7°C° 0 mm 1 mps 595 mmHg 82%
    08:00 +9°C° 0.1 mm 1 mps 595 mmHg 76%
    09:00 +10°C° 0.1 mm 1 mps 596 mmHg 69%
    10:00 +12°C° 0.1 mm 1 mps 597 mmHg 62%
    11:00 +12°C° 0.9 mm 1 mps 597 mmHg 63%
    12:00 +12°C° 0.9 mm 1 mps 597 mmHg 64%
    13:00 +13°C° 0.9 mm 1 mps 597 mmHg 65%
    14:00 +12°C° 1.4 mm 1 mps 597 mmHg 68%
    15:00 +11°C° 1.4 mm 1 mps 596 mmHg 71%
    16:00 +11°C° 1.4 mm 1 mps 596 mmHg 75%
    17:00 +10°C° 0.8 mm 1 mps 596 mmHg 80%
    18:00 +9°C° 0.8 mm 1 mps 596 mmHg 85%
    19:00 +8°C° 0.8 mm 1 mps 595 mmHg 89%
    20:00 +7°C° 0.6 mm 1 mps 595 mmHg 91%
    21:00 +6°C° 0.6 mm 1 mps 595 mmHg 93%
    22:00 +6°C° 0.6 mm 1 mps 595 mmHg 94%
    23:00 +5°C° 0.2 mm 1 mps 595 mmHg 94%

    23 May, Wednesday

    Time Temperature Precipitation Wind Pressure Humidity
    00:00 +5°C° 0.2 mm 1 mps 595 mmHg 94%
    01:00 +5°C° 0.2 mm 1 mps 595 mmHg 95%
    02:00 +4°C° 0.3 mm 1 mps 595 mmHg 95%
    03:00 +4°C° 0.3 mm 1 mps 595 mmHg 95%
    04:00 +4°C° 0.3 mm 1 mps 595 mmHg 95%
    05:00 +5°C° 0.3 mm 1 mps 596 mmHg 92%
    06:00 +6°C° 0.3 mm 1 mps 596 mmHg 89%
    07:00 +7°C° 0.3 mm 1 mps 597 mmHg 86%
    08:00 +9°C° 0.5 mm 1 mps 598 mmHg 82%
    09:00 +10°C° 0.5 mm 1 mps 598 mmHg 78%
    10:00 +11°C° 0.5 mm 1 mps 599 mmHg 74%
    11:00 +12°C° 0.9 mm 1 mps 599 mmHg 73%
    12:00 +12°C° 0.9 mm 1 mps 599 mmHg 72%
    13:00 +13°C° 0.9 mm 1 mps 599 mmHg 71%
    14:00 +13°C° 1.3 mm 1 mps 599 mmHg 73%
    15:00 +13°C° 1.3 mm 2 mps 599 mmHg 74%
    16:00 +12°C° 1.3 mm 2 mps 599 mmHg 76%
    17:00 +11°C° 1.2 mm 1 mps 598 mmHg 81%
    18:00 +10°C° 1.2 mm 1 mps 598 mmHg 86%
    19:00 +9°C° 1.2 mm 1 mps 598 mmHg 91%
    20:00 +8°C° 0.6 mm 1 mps 597 mmHg 92%
    21:00 +7°C° 0.6 mm 1 mps 597 mmHg 94%
    22:00 +6°C° 0.6 mm 1 mps 597 mmHg 95%
    23:00 +6°C° 0.1 mm 1 mps 597 mmHg 95%

    24 May, Thursday

    Time Temperature Precipitation Wind Pressure Humidity
    00:00 +5°C° 0.1 mm 1 mps 597 mmHg 95%
    01:00 +5°C° 0.1 mm 1 mps 596 mmHg 94%
    02:00 +4°C° 0 mm 1 mps 596 mmHg 94%
    03:00 +4°C° 0 mm 1 mps 596 mmHg 94%
    04:00 +4°C° 0 mm 1 mps 596 mmHg 94%
    05:00 +6°C° 0 mm 1 mps 597 mmHg 90%
    06:00 +7°C° 0 mm 0 mps 598 mmHg 87%
    07:00 +8°C° 0 mm 0 mps 598 mmHg 83%
    08:00 +10°C° 0 mm 0 mps 599 mmHg 75%
    09:00 +13°C° 0 mm 1 mps 600 mmHg 67%
    10:00 +15°C° 0 mm 1 mps 601 mmHg 59%
    11:00 +14°C° 0.9 mm 1 mps 600 mmHg 61%
    12:00 +14°C° 0.9 mm 1 mps 600 mmHg 64%
    13:00 +14°C° 0.9 mm 1 mps 600 mmHg 67%
    14:00 +14°C° 1.5 mm 1 mps 599 mmHg 70%
    15:00 +13°C° 1.5 mm 1 mps 599 mmHg 74%
    16:00 +13°C° 1.5 mm 1 mps 599 mmHg 77%
    17:00 +12°C° 1 mm 1 mps 598 mmHg 82%
    18:00 +10°C° 1 mm 0 mps 598 mmHg 86%
    19:00 +9°C° 1 mm 0 mps 598 mmHg 90%
    20:00 +8°C° 0.7 mm 0 mps 598 mmHg 91%
    21:00 +9°C° 0.7 mm 1 mps 598 mmHg 92%
    22:00 +8°C° 0.7 mm 1 mps 598 mmHg 92%
    23:00 +7°C° 0 mm 1 mps 597 mmHg 92%

    25 May, Friday

    Time Temperature Precipitation Wind Pressure Humidity
    00:00 +6°C° 0 mm 1 mps 597 mmHg 92%
    01:00 +5°C° 0 mm 1 mps 596 mmHg 92%
    02:00 +5°C° 0 mm 1 mps 596 mmHg 92%
    03:00 +5°C° 0 mm 1 mps 596 mmHg 92%
    04:00 +5°C° 0 mm 1 mps 596 mmHg 92%
    05:00 +6°C° 0 mm 1 mps 597 mmHg 87%
    06:00 +8°C° 0 mm 1 mps 598 mmHg 83%
    07:00 +10°C° 0 mm 1 mps 599 mmHg 79%
    08:00 +12°C° 0 mm 1 mps 600 mmHg 69%
    09:00 +14°C° 0 mm 1 mps 600 mmHg 59%
    10:00 +16°C° 0 mm 1 mps 601 mmHg 50%
    11:00 +18°C° 0.1 mm 1 mps 601 mmHg 47%
    12:00 +19°C° 0.1 mm 1 mps 602 mmHg 44%
    13:00 +19°C° 0.1 mm 1 mps 602 mmHg 42%
    14:00 +18°C° 0.3 mm 2 mps 601 mmHg 45%
    15:00 +17°C° 0.3 mm 2 mps 601 mmHg 49%
    16:00 +17°C° 0.3 mm 2 mps 601 mmHg 52%
    17:00 +15°C° 1.2 mm 2 mps 600 mmHg 63%
    18:00 +14°C° 1.2 mm 1 mps 600 mmHg 73%
    19:00 +12°C° 1.2 mm 1 mps 599 mmHg 83%
    20:00 +11°C° 1.6 mm 1 mps 599 mmHg 86%
    21:00 +10°C° 1.6 mm 1 mps 599 mmHg 88%
    22:00 +9°C° 1.6 mm 1 mps 599 mmHg 90%
    23:00 +9°C° 0.5 mm 1 mps 599 mmHg 89%
    Show more